This is the latest recevied weather packets stored in our database for station/object WI0K. If no packets are shown the sender has not sent any weather packets the latest 10 day(s).
| Time | Temp. | Humidity | Pressure | Rain* | Wind** | Luminosity | Snow |
|---|---|---|---|---|---|---|---|
| 1788380316 | 30° C | 28% | 1017.5 hPa | 0 mm | - | 856 W/m² | - |
| 1788380016 | 29.44° C | 28% | 1017.6 hPa | 0 mm | - | 862 W/m² | - |
| 1788379715 | 29.44° C | 28% | 1017.6 hPa | 0 mm | - | 875 W/m² | - |
| 1788379415 | 29.44° C | 29% | 1017.7 hPa | 0 mm | - | 881 W/m² | - |
| 1788379111 | 30° C | 29% | 1017.7 hPa | 0 mm | - | 891 W/m² | - |
| 1788378811 | 30° C | 28% | 1017.7 hPa | 0 mm | - | 894 W/m² | - |
| 1788378510 | 30° C | 27% | 1017.8 hPa | 0 mm | - | 898 W/m² | - |
| 1788378208 | 30° C | 25% | 1017.9 hPa | 0 mm | - | 907 W/m² | - |
| 1788377907 | 30° C | 27% | 1017.9 hPa | 0 mm | - | 909 W/m² | - |
| 1788377606 | 30° C | 24% | 1017.9 hPa | 0 mm | - | 914 W/m² | - |
| 1788377305 | 30° C | 26% | 1018.1 hPa | 0 mm | - | 920 W/m² | - |
| 1788377004 | 30° C | 26% | 1018.1 hPa | 0 mm | - | 923 W/m² | - |
| 1788376703 | 30° C | 26% | 1018.2 hPa | 0 mm | - | 928 W/m² | - |
| 1788376402 | 30° C | 25% | 1018.3 hPa | 0 mm | - | 929 W/m² | - |
| 1788376102 | 30° C | 25% | 1018.3 hPa | 0 mm | - | 933 W/m² | - |
| 1788375801 | 30° C | 25% | 1018.3 hPa | 0 mm | - | 932 W/m² | - |
| 1788375500 | 29.44° C | 27% | 1018.4 hPa | 0 mm | - | 933 W/m² | - |
| 1788375199 | 29.44° C | 25% | 1018.5 hPa | 0 mm | - | 935 W/m² | - |
| 1788374898 | 29.44° C | 28% | 1018.5 hPa | 0 mm | - | 935 W/m² | - |
| 1788374597 | 29.44° C | 27% | 1018.6 hPa | 0 mm | - | 935 W/m² | - |
| 1788374296 | 30° C | 27% | 1018.8 hPa | 0 mm | - | 933 W/m² | - |
| 1788373995 | 29.44° C | 27% | 1018.8 hPa | 0 mm | - | 932 W/m² | - |
| 1788373694 | 28.89° C | 27% | 1018.9 hPa | 0 mm | - | 931 W/m² | - |
| 1788373394 | 28.33° C | 26% | 1019 hPa | 0 mm | - | 932 W/m² | - |
| 1788373093 | 27.78° C | 26% | 1019.1 hPa | 0 mm | - | 929 W/m² | - |
* Rain latest hour (hover to see other rain measurements)
** Current wind speed in m/s (hover to see current wind gust speed)